Volver al catálogo

COSMOS 970 DEB

ActivoLEO
NORAD 14444·DEBRIS·🇷🇺 Russia

Lanzado Dec 21, 1977 desde Baikonur Cosmodrome

Loading…

Próximos Pases (próximas 24 horas)

TLE

ActualizadoSource: Space-Track

Época: Sep 14, 2026, 05:19 UTC

1 14444U 77121BG  26257.22195331  .00000644  00000-0  71421-3 0  9995
2 14444  65.7989 345.2057 0063146 276.0287 109.2790 13.77802507248777

Sigue COSMOS 970 DEB en tiempo real con AllMySat

Download on the App Store